Location: St. Louis
(38.6270°N, 90.1994°W)
Time: 06:43:02
(UTC-06:00)

A-11 Canister half - Pass Details

Date: 06 December 2021
Orbit: 1524 x 1684 km, 47.3° (Epoch: 17 January)

Event Time Altitude Azimuth Distance (km) Brightness Sun altitude
Rises 08:36:01 0° 297° (WNW) 4,883 11.0 13.5°
Reaches altitude 10° 08:39:39 10° 288° (WNW) 3,871 10.6 14.0°
Maximum altitude 08:47:49 31° 231° (SW) 2,535 10.3 15.1°
Drops below altitude 10° 08:55:46 10° 174° (S) 3,750 12.1 16.2°
Sets 08:59:15 0° 164° (SSE) 4,710 12.8 16.6°
